Weather History for KIGQ - September, 2013

Change the Weather History Date:

Sunday, September 29, 2013

  Actual Average (KMDW) Record (KMDW)
Temperature  
Mean Temperature 60 °F 61 °F  
Max Temperature 72 °F 70 °F 99 °F (1953)
Min Temperature 45 °F 52 °F 33 °F (1942)
Degree Days  
Heating Degree Days 6 6  
Month to date heating degree days 74  
Since 1 July heating degree days 79  
Cooling Degree Days 0 2  
Month to date cooling degree days 119  
Year to date cooling degree days 1029  
Growing Degree Days 10 (Base 50)    
Moisture  
Dew Point 51 °F    
Average Humidity 75    
Maximum Humidity 95    
Minimum Humidity 50    
Precipitation  
Precipitation 0.21 in 0.10 in 1.13 in (1929)
Month to date precipitation 3.22  
Year to date precipitation 29.77  
Sea Level Pressure  
Sea Level Pressure 30.01 in    
Wind  
Wind Speed 8 mph (North)    
Max Wind Speed 14 mph    
Max Gust Speed 20 mph    
Visibility 9 miles    
Events Rain    
T = Trace of Precipitation, MM = Missing Value Source: NWS Daily Summary

Daily Weather History Graph

Daily Weather History Graph

Search for Another Location

Airport or City:

Trip Planner

Search our weather history database for the weather conditions in past years. The results will help you decide how hot, cold, wet, or windy it might be!

Date:

Astronomy

Sep. 29, 2013 Rise Set
Actual Time 6:45 AM CDT 6:34 PM CDT
Civil Twilight 6:17 AM CDT 7:02 PM CDT
Nautical Twilight 5:45 AM CDT 7:34 PM CDT
Astronomical Twilight 5:12 AM CDT 8:07 PM CDT
Moon 1:22 AM CDT 3:33 PM CDT
Length of Visible Light 12h 45m
Length of Day
11h 49m
Waning Crescent, 27% of the Moon is Illuminated
Sep 29
Waning Crescent
Oct 4
New
Oct 11
First Quarter
Oct 18
Full
Oct 26
Last Quarter

Hourly Weather History & Observations

Time (CDT) Temp. Dew Point Humidity Pressure Visibility Wind Dir Wind Speed Gust Speed Precip Events Conditions
12:15 AM 72.7 °F 53.8 °F 51% 29.94 in 10.0 mi SSW 12.7 mph 17.3 mph N/A   Overcast
12:35 AM 72.5 °F 54.0 °F 52% 29.94 in 10.0 mi SSW 11.5 mph 16.1 mph N/A   Overcast
12:55 AM 72.5 °F 54.1 °F 52% 29.95 in 10.0 mi SSW 12.7 mph 17.3 mph N/A   Overcast
1:15 AM 65.7 °F 59.7 °F 81% 29.96 in 7.0 mi WSW 12.7 mph - 0.05 in Rain Rain
1:35 AM 64.6 °F 61.9 °F 91% 29.96 in 4.0 mi WSW 10.4 mph - 0.11 in Rain Heavy Rain
1:55 AM 64.8 °F 62.6 °F 93% 29.96 in 5.0 mi WSW 6.9 mph - 0.16 in Rain Light Rain
2:15 AM 64.9 °F 62.8 °F 93% 29.96 in 7.0 mi SSW 8.1 mph - N/A   Light Drizzle
2:35 AM 65.5 °F 63.1 °F 92% 29.96 in 10.0 mi WSW 6.9 mph - N/A   Light Drizzle
2:55 AM 64.6 °F 62.1 °F 92% 29.96 in 7.0 mi NNW 10.4 mph - 0.03 in Rain Heavy Rain
3:15 AM 63.0 °F 60.8 °F 93% 29.97 in 10.0 mi North 9.2 mph 17.3 mph N/A Rain Rain
3:35 AM 61.0 °F 58.6 °F 92% 29.98 in 7.0 mi NNE 13.8 mph 17.3 mph 0.02 in Rain Rain
3:55 AM 57.2 °F 54.9 °F 92% 30.00 in 5.0 mi North 10.4 mph 18.4 mph 0.02 in Rain Heavy Rain
4:15 AM 56.5 °F 54.1 °F 92% 30.00 in 10.0 mi North 8.1 mph - N/A   Overcast
4:35 AM 57.2 °F 53.4 °F 87% 30.00 in 10.0 mi North 5.8 mph - N/A   Overcast
4:55 AM 57.2 °F 52.9 °F 85% 30.00 in 10.0 mi North 5.8 mph - N/A Rain Light Rain
5:15 AM 57.4 °F 52.9 °F 85% 30.01 in 10.0 mi NNW 5.8 mph - N/A   Overcast
5:35 AM 57.4 °F 53.2 °F 86% 30.01 in 10.0 mi North 4.6 mph - N/A   Overcast
5:55 AM 57.6 °F 53.1 °F 85% 30.01 in 10.0 mi NNW 4.6 mph - N/A   Overcast
6:15 AM 57.2 °F 53.6 °F 88% 30.02 in 10.0 mi NNW 3.5 mph - N/A   Overcast
6:35 AM 56.5 °F 52.9 °F 88% 30.02 in 10.0 mi NNW 4.6 mph - N/A   Scattered Clouds
6:55 AM 55.8 °F 52.3 °F 88% 30.02 in 10.0 mi NNW 8.1 mph - N/A   Clear
7:15 AM 55.4 °F 52.2 °F 89% 30.03 in 10.0 mi NW 9.2 mph - N/A   Clear
7:35 AM 55.4 °F 52.5 °F 90% 30.03 in 10.0 mi NW 6.9 mph - N/A   Clear
8:15 AM 57.4 °F 53.1 °F 85% 30.03 in 10.0 mi NNW 9.2 mph - N/A   Mostly Cloudy
8:35 AM 57.7 °F 53.2 °F 85% 30.03 in 10.0 mi NNW 6.9 mph 19.6 mph N/A   Mostly Cloudy
8:55 AM 58.5 °F 53.1 °F 82% 30.03 in 10.0 mi NNW 5.8 mph - N/A   Scattered Clouds
9:15 AM 59.2 °F 53.2 °F 81% 30.04 in 10.0 mi North 8.1 mph 18.4 mph N/A   Mostly Cloudy
9:35 AM 60.1 °F 53.1 °F 78% 30.04 in 10.0 mi North 6.9 mph - N/A   Overcast
9:55 AM 60.6 °F 52.7 °F 75% 30.05 in 10.0 mi North 6.9 mph - N/A   Overcast
10:15 AM 60.6 °F 51.8 °F 73% 30.05 in 10.0 mi North 5.8 mph - N/A   Mostly Cloudy
10:35 AM 61.3 °F 51.4 °F 70% 30.05 in 10.0 mi North 6.9 mph - N/A   Mostly Cloudy
10:55 AM 63.9 °F 52.0 °F 65% 30.05 in 10.0 mi North 5.8 mph - N/A   Mostly Cloudy
11:15 AM 61.9 °F 50.4 °F 66% 30.06 in 10.0 mi North 9.2 mph - N/A   Overcast
11:35 AM 61.9 °F 50.7 °F 67% 30.06 in 10.0 mi NNW 5.8 mph - N/A   Overcast
11:55 AM 63.1 °F 49.5 °F 61% 30.06 in 10.0 mi North 8.1 mph - N/A   Mostly Cloudy
12:15 PM 63.1 °F 50.0 °F 62% 30.06 in 10.0 mi NNE 5.8 mph 17.3 mph N/A   Mostly Cloudy
12:35 PM 64.4 °F 50.4 °F 60% 30.05 in 10.0 mi NNE 6.9 mph - N/A   Mostly Cloudy
12:55 PM 64.8 °F 49.1 °F 57% 30.05 in 10.0 mi NNE 6.9 mph - N/A   Scattered Clouds
1:15 PM 64.4 °F 48.4 °F 56% 30.04 in 10.0 mi NNE 9.2 mph - N/A   Scattered Clouds
1:35 PM 64.9 °F 47.8 °F 54% 30.04 in 10.0 mi NNE 8.1 mph - N/A   Clear
1:55 PM 64.6 °F 47.1 °F 53% 30.03 in 10.0 mi North 10.4 mph - N/A   Clear
2:15 PM 64.9 °F 46.8 °F 52% 30.03 in 10.0 mi NE 11.5 mph 17.3 mph N/A   Clear
2:35 PM 65.3 °F 46.0 °F 50% 30.02 in 10.0 mi North 10.4 mph - N/A   Clear
2:55 PM 65.3 °F 46.4 °F 50% 30.02 in 10.0 mi North 6.9 mph - N/A   Clear
3:15 PM 64.8 °F 47.8 °F 54% 30.02 in 10.0 mi NNE 8.1 mph - N/A   Clear
3:35 PM 64.6 °F 47.5 °F 54% 30.02 in 10.0 mi ENE 8.1 mph - N/A   Clear
3:55 PM 65.1 °F 47.1 °F 52% 30.02 in 10.0 mi NE 8.1 mph - N/A   Clear
4:15 PM 64.4 °F 48.6 °F 56% 30.02 in 10.0 mi NNE 8.1 mph - N/A   Mostly Cloudy
4:35 PM 64.2 °F 48.7 °F 57% 30.02 in 10.0 mi NNE 9.2 mph - N/A   Mostly Cloudy
4:55 PM 63.3 °F 49.1 °F 60% 30.02 in 10.0 mi NNE 8.1 mph - N/A   Mostly Cloudy
5:15 PM 62.2 °F 48.6 °F 61% 30.02 in 10.0 mi NNE 9.2 mph - N/A   Mostly Cloudy
5:35 PM 62.4 °F 48.0 °F 59% 30.02 in 10.0 mi ENE 9.2 mph - N/A   Mostly Cloudy
5:55 PM 61.7 °F 48.4 °F 62% 30.02 in 10.0 mi NE 8.1 mph - N/A   Overcast
6:15 PM 60.6 °F 48.4 °F 64% 30.02 in 10.0 mi East 5.8 mph - N/A   Scattered Clouds
6:35 PM 59.2 °F 48.2 °F 67% 30.02 in 10.0 mi ENE 3.5 mph - N/A   Clear
6:55 PM 59.0 °F 48.0 °F 67% 30.01 in 10.0 mi NNE 3.5 mph - N/A   Clear
7:15 PM 59.0 °F 48.2 °F 67% 30.02 in 10.0 mi Calm Calm - N/A   Clear
7:35 PM 58.5 °F 48.7 °F 70% 30.02 in 10.0 mi Calm Calm - N/A   Clear
7:55 PM 54.7 °F 47.5 °F 77% 30.02 in 10.0 mi Calm Calm - N/A   Clear
8:15 PM 54.1 °F 48.2 °F 80% 30.02 in 10.0 mi Calm Calm - N/A   Clear
8:35 PM 53.6 °F 48.6 °F 83% 30.02 in 10.0 mi Calm Calm - N/A   Clear
8:55 PM 51.8 °F 48.4 °F 88% 30.01 in 10.0 mi Calm Calm - N/A   Clear
9:15 PM 51.1 °F 48.2 °F 90% 30.01 in 10.0 mi Calm Calm - N/A   Clear
9:35 PM 49.1 °F 47.1 °F 93% 30.02 in 10.0 mi Calm Calm - N/A   Clear
9:55 PM 49.3 °F 47.3 °F 93% 30.02 in 10.0 mi Calm Calm - N/A   Clear
10:15 PM 48.7 °F 46.8 °F 93% 30.02 in 10.0 mi Calm Calm - N/A   Clear
10:35 PM 49.1 °F 47.3 °F 93% 30.02 in 10.0 mi Calm Calm - N/A   Clear
10:55 PM 48.6 °F 46.9 °F 94% 30.01 in 10.0 mi Calm Calm - N/A   Clear
11:15 PM 47.7 °F 46.4 °F 95% 30.01 in 5.0 mi Calm Calm - N/A   Clear
11:35 PM 47.7 °F 46.2 °F 95% 30.01 in 10.0 mi Calm Calm - N/A   Clear
11:55 PM 45.7 °F 44.2 °F 95% 30.01 in 1.0 mi Calm Calm - N/A   Mist